Voltar ao catálogo

SL-12 DEB

LostHEO
NORAD 43380·DEBRIS·🇷🇺 Russia

Lançado Oct 26, 2007 de Baikonur Cosmodrome

Loading…

Próximas Passagens (próximas 24 horas)

TLE

ObsoletoSource: Space-Track

Época: Jun 14, 2018, 14:27 UTC

1 43380U 07052AG  18165.60216509  .00000101  00000-0  00000+0 0  9993
2 43380  64.1164 240.4231 5820416  24.0557 354.4036  4.27262316 51472

Acompanhe SL-12 DEB em tempo real com AllMySat

Download on the App Store